sat.trackr.live / text

‹ back to catalog

STARLINK-2479

NORAD 48136 · 2021-027AW

PAYLOAD ACTIVE UNKNOWN

§ Identity

Operator
Country
US
Launch date
2021-04-07
Launch site
AFETR
Launch vehicle
Mass (kg)
RCS (m²)

Purposes: comms

External: N2YO · Heavens-Above · Gunter

§ Orbital elements

Epoch: 2026-05-25T01:58:01.725024Z

Period
94.01 min
Inclination
53.1586°
Eccentricity
0.0001438
Mean motion
15.31700638 rev/d
Perigee alt
469.8 km
Apogee alt
471.7 km
Semi-major
6,848.9 km
B*
4.1859e-5
RAAN
170.2390°
Arg perigee
87.9917°
Mean anomaly
272.1249°
Rev number
28,421

§ Raw data

STARLINK-24791 48136U 21027AW  26145.08196441  .00000934  00000+0  41859-4 0  99912 48136  53.1586 170.2390 0001438  87.9917 272.1249 15.31700638284219

JSON: /api/v1/satellites/48136 · /tle

For live sub-satellite position, see the globe view (requires WebGL).

§ Visibility from observer

Set your observer location to see the next 7 days of passes ≥ 10°. The values pass through the URL so the page stays shareable.

No JS? Fill the form by hand. The geolocation button needs JavaScript.